Flag for Germany Weather past 2 weeks in Arnstadt, Thuringia, Germany

Now
51 °F

Passing clouds.


Feels Like: 48 °F
Forecast: 39 / 45 °F
Wind: 6 mph from Southwest

Location: Erfurt-Bindersleben

Current Time: Oct 21, 2014 at 7:45:24 AM

Latest Report: Oct 21, 2014 at 7:00 AM


Visibility: 25 mi

Pressure: 29.88 "Hg

Humidity: 88%

Dew point: 47 °F

Location of ArnstadtLocation

Historic Weather in Arnstadt — Graph

°F

Arnstadt temperature yesterday

Maximum temperature yesterday: 64 °F (at 1:00 AM)
Minimum temperature yesterday: 48 °F (at 11:00 PM)
Average temperature yesterday: 57 °F

Past Weeks' High & Low Weather Summary

 TemperatureHumidityPressure
High68 °F (Oct 9, 5:00 PM)100% (Oct 11, 5:00 AM)30.23 "Hg (Oct 11, 5:00 AM)
Low42 °F (Oct 6, 7:00 AM)58% (Oct 15, 3:00 PM)29.68 "Hg (Oct 7, 1:00 PM)
Average57 °F85%29.89 "Hg
* Reported Oct 6 6:00 AM — Oct 21 6:00 AM, Arnstadt, Weather by CustomWeather, © 2014

Note: Actual official high and low records may vary slightly from our data, if they occured in-between our weather recording intervals... More about our weather records

Advertising

Arnstadt weather history for previous 24 hours

 ConditionsComfort  
Time TempWeatherWind HumidityBarometerVisibility
6:00 AM
Oct 21
49 °FPassing clouds.5 mph92%29.90 "Hg25 mi
5:00 AM50 °FPassing clouds.6 mph89%29.90 "Hg31 mi
4:00 AM49 °FPassing clouds.5 mph91%29.92 "Hg31 mi
3:00 AM50 °FPassing clouds.5 mph88%29.94 "Hg37 mi
2:00 AM48 °FPassing clouds.3 mph89%29.94 "Hg37 mi
1:00 AM48 °FPassing clouds.5 mph90%29.95 "Hg37 mi
12:00 AM47 °FPassing clouds.3 mph89%29.97 "Hg37 mi
11:00 PM
Oct 20
48 °FPassing clouds.3 mph86%29.98 "Hg43 mi
10:00 PM49 °FPassing clouds.6 mph86%29.98 "Hg43 mi
9:00 PM51 °FPassing clouds.6 mph81%29.97 "Hg43 mi
8:00 PM54 °FPassing clouds.8 mph74%29.97 "Hg43 mi
7:00 PM54 °FPassing clouds.6 mph75%29.98 "Hg43 mi
6:00 PM56 °FOvercast.7 mph71%29.99 "Hg47 mi
5:00 PM57 °FOvercast.7 mph69%29.99 "Hg47 mi
4:00 PM58 °FOvercast.8 mph67%30.00 "Hg47 mi
3:00 PM60 °FOvercast.8 mph65%30.01 "Hg47 mi
2:00 PM59 °FOvercast.12 mph66%30.01 "Hg47 mi
1:00 PM58 °FOvercast.8 mph72%30.03 "Hg43 mi
12:00 PM58 °FPartly sunny.8 mph71%30.03 "Hg37 mi
11:00 AM57 °FPartly sunny.9 mph74%30.03 "Hg37 mi
10:00 AM56 °FOvercast.9 mph80%30.03 "Hg37 mi
9:00 AM55 °FOvercast.5 mph79%30.03 "Hg31 mi
8:00 AM55 °FOvercast.6 mph77%30.01 "Hg31 mi
7:00 AM56 °FPassing clouds.7 mph77%29.99 "Hg25 mi
Weather by CustomWeather, © 2014

See weather overviewHow to use our weather pages